| time (UTC) | temp F | wind direction | speed knots | gust knots | rain 1hr in | rain 24hr in | rain mn in | humidity % | barometer mb |
| 20260508163038 | 66 | 271 | 5.2 | 10.4 | 0.00 | 0.00 | 0.00 | 24 | 1005.4 |
| 20260508161533 | 67 | 307 | 6.1 | 16.5 | 0.00 | 0.00 | 0.00 | 24 | 1005.6 |
| 20260508160025 | 66 | 271 | 5.2 | 10.4 | 0.00 | 0.00 | 0.00 | 25 | 1005.7 |
| 20260508154518 | 64 | 215 | 5.2 | 13.0 | 0.00 | 0.00 | 0.00 | 27 | 1005.9 |
| 20260508153018 | 64 | 309 | 3.5 | 9.6 | 0.00 | 0.00 | 0.00 | 27 | 1006.0 |
| 20260508151515 | 62 | 282 | 5.2 | 14.8 | 0.00 | 0.00 | 0.00 | 28 | 1006.3 |
| 20260508150020 | 62 | 265 | 6.1 | 13.9 | 0.00 | 0.00 | 0.00 | 27 | 1006.3 |
| 20260508144512 | 64 | 267 | 4.3 | 10.4 | 0.00 | 0.00 | 0.00 | 28 | 1006.5 |
| 20260508143013 | 61 | 53 | 2.6 | 5.2 | 0.00 | 0.00 | 0.00 | 29 | 1006.7 |
| 20260508141506 | 60 | 242 | 3.5 | 7.0 | 0.00 | 0.00 | 0.00 | 31 | 1006.9 |
| 20260508140005 | 57 | 206 | 2.6 | 8.7 | 0.00 | 0.00 | 0.00 | 33 | 1007.1 |
| 20260508134607 | 55 | 225 | 4.3 | 11.3 | 0.00 | 0.00 | 0.00 | 34 | 1007.2 |
| 20260508133100 | 54 | 219 | 3.5 | 8.7 | 0.00 | 0.00 | 0.00 | 35 | 1007.4 |
| 20260508131600 | 52 | 236 | 5.2 | 10.4 | 0.00 | 0.00 | 0.00 | 36 | 1007.3 |
| 20260508130059 | 51 | 273 | 2.6 | 10.4 | 0.00 | 0.00 | 0.00 | 39 | 1007.4 |
| 20260508124556 | 49 | 259 | 3.5 | 8.7 | 0.00 | 0.00 | 0.00 | 42 | 1007.5 |
| 20260508123056 | 47 | 209 | 2.6 | 6.1 | 0.00 | 0.00 | 0.00 | 43 | 1007.5 |
| 20260508121557 | 46 | 181 | 1.7 | 6.1 | 0.00 | 0.00 | 0.00 | 45 | 1007.6 |
| 20260508120056 | 45 | 229 | 1.7 | 6.1 | 0.00 | 0.00 | 0.00 | 46 | 1007.5 |
| 20260508114606 | 45 | 259 | 0.9 | 6.1 | 0.00 | 0.00 | 0.00 | 46 | 1007.5 |
| 20260508113102 | 43 | 66 | 0.0 | 2.6 | 0.00 | 0.00 | 0.00 | 47 | 1007.4 |
| 20260508111602 | 43 | 132 | 0.0 | 2.6 | 0.00 | 0.00 | 0.00 | 48 | 1007.4 |
| 20260508110051 | 43 | 260 | 0.9 | 2.6 | 0.00 | 0.00 | 0.00 | 48 | 1007.3 |
| 20260508104551 | 44 | 232 | 0.0 | 3.5 | 0.00 | 0.00 | 0.00 | 48 | 1007.3 |
| 20260508103023 | 43 | 263 | 0.0 | 3.5 | 0.00 | 0.00 | 0.00 | 47 | 1007.5 |
| 20260508101518 | 43 | 192 | 0.9 | 5.2 | 0.00 | 0.00 | 0.00 | 47 | 1007.5 |
| 20260508100015 | 43 | 266 | 2.6 | 7.0 | 0.00 | 0.00 | 0.00 | 46 | 1007.6 |
| 20260508094516 | 42 | 146 | 3.5 | 7.8 | 0.00 | 0.00 | 0.00 | 46 | 1007.7 |
| 20260508094514 | 42 | 190 | 3.5 | 7.8 | 0.00 | 0.00 | 0.00 | 46 | 1007.7 |
| 20260508093014 | 43 | 158 | 3.5 | 7.0 | 0.00 | 0.00 | 0.00 | 46 | 1007.6 |
| 20260508091511 | 43 | 214 | 2.6 | 6.1 | 0.00 | 0.00 | 0.00 | 46 | 1007.6 |
| 20260508090006 | 43 | 227 | 2.6 | 7.0 | 0.00 | 0.00 | 0.00 | 45 | 1007.7 |
| 20260508084503 | 43 | 240 | 2.6 | 7.0 | 0.00 | 0.00 | 0.00 | 45 | 1007.8 |
| 20260508083002 | 43 | 221 | 1.7 | 4.3 | 0.00 | 0.00 | 0.00 | 45 | 1007.9 |
| 20260508081606 | 43 | 213 | 1.7 | 4.3 | 0.00 | 0.00 | 0.00 | 45 | 1008.0 |
| 20260508074604 | 43 | 210 | 0.9 | 5.2 | 0.00 | 0.00 | 0.00 | 45 | 1008.0 |
| 20260508073056 | 44 | 225 | 2.6 | 6.1 | 0.00 | 0.00 | 0.00 | 44 | 1008.2 |
| 20260508071553 | 44 | 205 | 2.6 | 7.0 | 0.00 | 0.00 | 0.00 | 44 | 1008.2 |
| 20260508070049 | 44 | 207 | 0.9 | 3.5 | 0.00 | 0.00 | 0.00 | 44 | 1008.4 |
| 20260508064548 | 45 | 229 | 1.7 | 5.2 | 0.00 | 0.00 | 0.00 | 43 | 1008.4 |
| 20260508063047 | 45 | 227 | 3.5 | 7.0 | 0.00 | 0.00 | 0.00 | 43 | 1008.5 |
| 20260508061546 | 44 | 276 | 0.9 | 3.5 | 0.00 | 0.00 | 0.00 | 44 | 1008.6 |
| 20260508060015 | 44 | 196 | 1.7 | 5.2 | 0.00 | 0.00 | 0.00 | 45 | 1008.6 |
| 20260508054514 | 44 | 160 | 0.9 | 2.6 | 0.00 | 0.00 | 0.00 | 45 | 1008.7 |
| 20260508053013 | 45 | 115 | 0.9 | 2.6 | 0.00 | 0.00 | 0.00 | 44 | 1008.8 |
| 20260508051523 | 46 | 177 | 0.0 | 1.7 | 0.00 | 0.00 | 0.00 | 45 | 1008.9 |
| 20260508050010 | 44 | 153 | 0.0 | 1.7 | 0.00 | 0.00 | 0.00 | 49 | 1009.0 |
| 20260508044511 | 43 | 202 | 0.0 | 0.9 | 0.00 | 0.00 | 0.00 | 51 | 1009.1 |
| 20260508043017 | 45 | 202 | 0.0 | 0.9 | 0.00 | 0.00 | 0.00 | 51 | 1009.2 |
| 20260508041509 | 43 | 202 | 0.0 | 1.7 | 0.00 | 0.00 | 0.00 | 54 | 1009.2 |
| 20260508040006 | 42 | 238 | 0.0 | 1.7 | 0.00 | 0.00 | 0.00 | 56 | 1009.3 |
| 20260508034505 | 45 | 225 | 0.0 | 0.9 | 0.00 | 0.00 | 0.00 | 51 | 1009.3 |
| 20260508033002 | 45 | 225 | 0.0 | 0.9 | 0.00 | 0.00 | 0.00 | 52 | 1009.3 |
| 20260508031501 | 45 | 225 | 0.0 | 0.9 | 0.00 | 0.00 | 0.00 | 54 | 1009.3 |
| 20260508030100 | 45 | 225 | 0.0 | 0.9 | 0.00 | 0.00 | 0.00 | 53 | 1009.3 |
| 20260508030001 | 45 | 225 | 0.0 | 0.9 | 0.00 | 0.00 | 0.00 | 53 | 1009.3 |
| 20260508024604 | 46 | 225 | 0.0 | 0.9 | 0.00 | 0.00 | 0.00 | 49 | 1009.3 |
| 20260508023056 | 47 | 225 | 0.0 | 0.9 | 0.00 | 0.00 | 0.00 | 47 | 1009.2 |
| 20260508021552 | 47 | 225 | 0.0 | 1.7 | 0.00 | 0.00 | 0.00 | 47 | 1009.2 |
| 20260508020048 | 48 | 235 | 1.7 | 2.6 | 0.00 | 0.00 | 0.00 | 45 | 1009.0 |
| 20260508014544 | 49 | 219 | 1.7 | 2.6 | 0.00 | 0.00 | 0.00 | 43 | 1008.9 |
| 20260508013036 | 50 | 221 | 0.9 | 2.6 | 0.00 | 0.00 | 0.00 | 41 | 1008.8 |
| 20260508011532 | 53 | 292 | 0.0 | 0.9 | 0.00 | 0.00 | 0.00 | 39 | 1008.8 |
| 20260508010033 | 56 | 292 | 0.0 | 1.7 | 0.00 | 0.00 | 0.00 | 28 | 1008.7 |
| 20260508004529 | 57 | 348 | 0.0 | 1.7 | 0.00 | 0.00 | 0.00 | 26 | 1008.6 |
| 20260508003058 | 56 | 355 | 0.9 | 4.3 | 0.00 | 0.00 | 0.00 | 26 | 1008.8 |
| 20260508001556 | 57 | 308 | 0.9 | 6.1 | 0.00 | 0.00 | 0.00 | 26 | 1008.7 |
| 20260508000024 | 57 | 336 | 1.7 | 6.1 | 0.00 | 0.00 | 0.00 | 24 | 1009.0 |
| 20260507234534 | 57 | 20 | 3.5 | 8.7 | 0.00 | 0.00 | 0.00 | 24 | 1009.0 |
| 20260507233020 | 61 | 355 | 0.9 | 5.2 | 0.00 | 0.00 | 0.00 | 23 | 1009.0 |
| 20260507231519 | 58 | 326 | 2.6 | 7.8 | 0.00 | 0.00 | 0.00 | 25 | 1009.1 |
| 20260507230018 | 58 | 350 | 3.5 | 8.7 | 0.00 | 0.00 | 0.00 | 23 | 1009.0 |
| 20260507224522 | 58 | 313 | 4.3 | 10.4 | 0.00 | 0.00 | 0.00 | 23 | 1009.1 |
| 20260507223013 | 59 | 290 | 2.6 | 7.0 | 0.00 | 0.00 | 0.00 | 23 | 1009.2 |
| 20260507221513 | 58 | 322 | 3.5 | 10.4 | 0.00 | 0.00 | 0.00 | 23 | 1009.3 |
| 20260507220012 | 59 | 355 | 3.5 | 8.7 | 0.00 | 0.00 | 0.00 | 23 | 1009.3 |
| 20260507214521 | 62 | 335 | 1.7 | 5.2 | 0.00 | 0.00 | 0.00 | 21 | 1009.2 |
| 20260507213005 | 59 | 317 | 4.3 | 9.6 | 0.00 | 0.00 | 0.00 | 23 | 1009.4 |
| 20260507211506 | 58 | 351 | 3.5 | 10.4 | 0.00 | 0.00 | 0.00 | 23 | 1009.3 |
| 20260507210002 | 61 | 104 | 1.7 | 11.3 | 0.00 | 0.00 | 0.00 | 23 | 1009.1 |
| 20260507204559 | 58 | 323 | 5.2 | 13.9 | 0.00 | 0.00 | 0.00 | 23 | 1009.6 |
| 20260507203057 | 59 | 344 | 5.2 | 13.9 | 0.00 | 0.00 | 0.00 | 23 | 1009.7 |
| 20260507201603 | 58 | 85 | 2.6 | 9.6 | 0.00 | 0.00 | 0.00 | 29 | 1009.9 |
| 20260507200046 | 57 | 17 | 2.6 | 10.4 | 0.00 | 0.00 | 0.00 | 29 | 1010.1 |
| 20260507194545 | 57 | 87 | 2.6 | 10.4 | 0.00 | 0.00 | 0.00 | 29 | 1010.1 |
| 20260507193051 | 56 | 26 | 6.1 | 11.3 | 0.00 | 0.00 | 0.00 | 24 | 1010.2 |
| 20260507191540 | 56 | 35 | 1.7 | 15.6 | 0.00 | 0.00 | 0.00 | 26 | 1010.2 |
| 20260507190037 | 56 | 80 | 5.2 | 11.3 | 0.00 | 0.00 | 0.00 | 25 | 1010.4 |
| 20260507184535 | 56 | 111 | 7.8 | 14.8 | 0.00 | 0.00 | 0.00 | 28 | 1010.4 |
| 20260507183034 | 55 | 74 | 4.3 | 13.9 | 0.00 | 0.00 | 0.00 | 30 | 1010.4 |
| 20260507181526 | 55 | 83 | 8.7 | 15.6 | 0.00 | 0.00 | 0.00 | 28 | 1010.6 |
| 20260507180022 | 55 | 161 | 5.2 | 12.2 | 0.00 | 0.00 | 0.00 | 30 | 1010.8 |
| 20260507174517 | 54 | 77 | 6.1 | 13.9 | 0.00 | 0.00 | 0.00 | 30 | 1010.9 |
| 20260507173025 | 54 | 90 | 2.6 | 10.4 | 0.00 | 0.00 | 0.00 | 29 | 1011.2 |
| 20260507171503 | 54 | 56 | 4.3 | 12.2 | 0.00 | 0.00 | 0.00 | 31 | 1011.3 |
| 20260507170057 | 53 | 30 | 4.3 | 10.4 | 0.00 | 0.00 | 0.00 | 30 | 1011.3 |
| 20260507164552 | 51 | 165 | 4.3 | 12.2 | 0.00 | 0.00 | 0.00 | 31 | 1011.5 |